Regional Weather Roundup
Issued by NWS Sterling, VA

Home | Current Version | Previous Version | Graphics & Text | Print | Product List | Glossary On
Versions: 1 2 3 4 5 6 7 8 9 10 11 12 13 14 15 16 17 18 19 20 21 22 23 24 25 26 27 28 29 30 31 32 33 34 35 36 37 38 39 40 41 42 43 44 45 46 47 48 49 50
000
ASUS41 KLWX 291910
RWRLWX

REGIONAL WEATHER ROUNDUP
NATIONAL WEATHER SERVICE BALTIMORE MD/WASHINGTON DC
300 PM EDT SUN MAR 29 2015

Note: "FAIR" indicates few or no clouds below 12,000 feet
with no significant weather and/or obstructions to visibility.
 TC=TEMPERATURE CELSIUS

 * =Non NWS site. Station does not report precipitation (e.g. rain,
    snow, etc.), thunder, or fog.

DCZ001-MDZ009-015-VAZ040>042-051-053>054-292000-
WASHINGTON METRO

CITY           SKY/WX    TMP DP  RH WIND       PRES   REMARKS
WASHINGTON NAT MOSUNNY   46   9  22 NW9       30.33F
DULLES         MOSUNNY   42   6  22 W6        30.31F
ANDREWS AFB    SUNNY     41   8  26 NW12      30.30F
FT BELVOIR     SUNNY     44   8  22 VRB6      30.32F
QUANTICO       SUNNY     42  13  30 SE6       30.34F
COLLEGE PARK*  SUNNY     43  10  26 W6        30.32F
LEESBURG*      SUNNY     43  14  31 NW7       30.31F
MANASSAS*      SUNNY     43   9  24 NW6       30.33F
GAITHERSBURG*  SUNNY     39   9  28 W6        30.33F

$$

MDZ006>007-011-014-292000-
BALTIMORE METRO

CITY           SKY/WX    TMP DP  RH WIND       PRES   REMARKS
BWI AIRPORT    MOSUNNY   43   9  24 W9        30.29F
MARTIN STATE   SUNNY     45   9  23 CALM      30.31F
ANNAPOLIS      SUNNY     42   7  23 MISG      30.31F

$$

MDZ012-015-019>023-292000-
MARYLAND EASTERN SHORE

CITY           SKY/WX    TMP DP  RH WIND       PRES   REMARKS
OCEAN CITY     SUNNY     43  11  27 N13       30.29F
SALISBURY      SUNNY     41  12  30 NW10G21   30.30F
BAY BRIDGE AP*   N/A     39   7  26 N5        30.32F
CAMBRIDGE*     SUNNY     41  10  28 W13       30.32F
EASTON*        SUNNY     41  12  30 NW9G18    30.35

$$

MDZ017>025-292000-
SOUTHERN MARYLAND

CITY           SKY/WX    TMP DP  RH WIND       PRES   REMARKS
PATUXENT RIVER SUNNY     42   8  24 NW7       30.33F
ST INIGOES     SUNNY     41  11  29 W15       30.33F
LEONARDTOWN*   SUNNY     41   5  22 SW3       30.34S

$$

MDZ003>005-292000-
NORTH CENTRAL MARYLAND

CITY           SKY/WX    TMP DP  RH WIND       PRES   REMARKS
FREDERICK*     SUNNY     45  -8  11 SW8       30.32F
HAGERSTOWN APT SUNNY     40   6  24 VRB3      30.27F
WESTMINSTER*   SUNNY     39   1  20 SW6       30.26F

$$

MDZ501>502-292000-
WESTERN MARYLAND

CITY           SKY/WX    TMP DP  RH WIND       PRES   REMARKS
OAKLAND*       SUNNY     36  14  41 SW8       30.17F
CUMBERLAND*    SUNNY     46   9  21 S8        30.28F

$$

VAZ025>031-292000-
SHENANDOAH VALLEY

CITY           SKY/WX    TMP DP  RH WIND       PRES   REMARKS
WINCHESTER*    SUNNY     46 -13   8 SW5       30.26F
FRONT ROYAL*   FAIR      45   7  21 SE3       30.25F
LURAY*         FAIR      46   9  21 CALM      30.26F
NEW MARKET*    FAIR      44   6  21 S5        30.25F
STAUNTON*      SUNNY     44   5  20 SE6       30.27F
WAYNESBORO*    FAIR      43   6  21 SW6       30.25F

$$

WVZ021-048>050-054>055-292000-
EASTERN WEST VIRGINIA PANHANDLE

CITY           SKY/WX    TMP DP  RH WIND       PRES   REMARKS
MARTINSBURG    SUNNY     44   7  21 VRB6      30.27F
PETERSBURG*    SUNNY     46  -4  12 E5        30.24F

$$

VAZ036>039-050-292000-
CENTRAL FOOTHILLS

CITY           SKY/WX    TMP DP  RH WIND       PRES   REMARKS
CHARLOTTESVILL SUNNY     46   4  17 S9        30.28F
CULPEPER*      SUNNY     46   3  17 W8        30.32F
ORANGE*        SUNNY     46   9  21 SW5       30.33F
GORDONSVILLE*  FAIR      45   6  19 SW7       30.30F
WARRENTON*     FAIR      47  15  28 SW3       30.31F

$$

VAZ055>057-292000-
NORTH AND CENTRAL PIEDMONT

CITY           SKY/WX    TMP DP  RH WIND       PRES   REMARKS
FREDERICKSBRG* SUNNY     47   8  21 NW6       30.32F
STAFFORD*      SUNNY     43   1  17 NW6       30.36F

$$

NCZ024-NYZ072-PAZ021-071-VAZ022-071-292000-
OTHER REGIONAL OBSERVATIONS

CITY           SKY/WX    TMP DP  RH WIND       PRES   REMARKS
NEW YORK CITY  SUNNY     44   4  19 NW7       30.22F
PHILADELPHIA   SUNNY     43   6  21 NW12      30.27F
PITTSBURGH     MOSUNNY   41   8  25 SW10G17   30.22F
ROANOKE        MOSUNNY   48   7  18 SE8       30.27F
RICHMOND       SUNNY     47   4  17 W10       30.33F
RALEIGH        MOSUNNY   47   6  18 CALM      30.35F

$$

ANZ530>537-292000-
MARINE OBSERVATIONS

STATION/POSITION TIME  TEMP    WIND        PRES
                       AIR SEA DIR/SP/G
                 (UTC) (F)     (DEG/KT/KT) (MB)
THOMAS PT LIGHT  1900                        N/A
BALT KEY BRIDGE  1800   37     320/  5/  5 1027.0F
COVE POINT       1800   33      50/  6/  7 1027.4F
LEWISETTA        1800   37 43              1027.5F
SOLOMONS ISLAND  1812      43                N/A
PINEY POINT      1800          280/ 11/ 13   N/A

$$



USA.gov is the U.S. government's official web portal to all federal, state and local government web resources and services.